Location: Katowice
(50.2611°N, 19.0242°E)
Time: 02:03:21
(UTC+02:00)

A-11 Canister half - Pass Details

Date: 26 July 2019
Orbit: 1526 x 1683 km, 47.3° (Epoch: 23 August)

Event Time Altitude Azimuth Distance (km) Brightness Sun altitude
Rises 22:23:39 0° 261° (W) 4,915 12.0 -13.2°
Reaches altitude 10° 22:26:50 10° 260° (W) 3,915 11.5 -13.5°
Maximum altitude 22:36:50 76° 177° (S) 1,674 9.0 -14.4°
Drops below altitude 10° 22:46:30 10° 94° (E) 3,798 10.7 -15.2°
Sets 22:49:33 0° 93° (E) 4,762 11.3 -15.4°
